Zurück zum Katalog

COSMOS 2496

AktivMilitärPO
NORAD 39761·PAYLOAD·🇷🇺 Russia

Gestartet May 23, 2014 von Plesetsk Cosmodrome

Loading…

Nächste Überflüge (nächste 24 Stunden)

TLE

AktuellSource: Space-Track

Epoche: Sep 14, 2026, 14:47 UTC

1 39761U 14028A   26257.61652382 -.00000142  00000-0 -10975-2 0  9999
2 39761  82.4435  52.6943 0019286 243.6285 116.2815 12.42880586558623

Verfolge COSMOS 2496 in Echtzeit mit AllMySat

Download on the App Store